Regional Weather Roundup
Issued by NWS Charleston, SC

Current Version | Previous Version | Text Only | Print | Product List | Glossary Off
Versions: 1 2 3 4 5 6 7 8 9 10 11 12 13 14 15 16 17 18 19 20 21 22 23 24 25 26 27 28 29 30 31 32 33 34 35 36 37 38 39 40 41 42 43 44 45 46 47 48 49 50

000
ASUS42 KCHS 220910
RWRCHS

REGIONAL WEATHER ROUNDUP
NATIONAL WEATHER SERVICE CHARLESTON SC
400 AM EST WED FEB 22 2017

NOTE: "FAIR" INDICATES FEW OR NO CLOUDS BELOW 12,000 FEET WITH NO
SIGNIFICANT WEATHER AND/OR OBSTRUCTIONS TO VISIBILITY.

NOT ALL STATIONS ARE QUALITY CONTROLLED. USE DATA WITH CAUTION...
ESPECIALLY DEWPOINT OBSERVATIONS.

SCZ027-030-031-034>040-042>050-221000-
...SOUTHEAST SOUTH CAROLINA...

CITY           SKY/WX    TMP DP  RH WIND       PRES   REMARKS
N CHARLESTON   CLOUDY    60  56  86 E9        29.96F
WATERFRONT PRK   N/A     60  59  96 E9        29.96F
MOUNT PLEASANT FAIR      57  55  94 CALM      29.98S
JOHNS ISLAND   FAIR      59  59 100 NE7       29.96F
PINOPOLIS        N/A     59  57  94 CALM      29.88F
MONCKS CORNER  FAIR      57  54  88 CALM      29.97S
SUMMERVILLE    FAIR      54  54 100 CALM      29.97S
BEAUFORT MCAS  MOCLDY    64  59  83 E6        29.93F
BEAUFORT ARPT  FAIR      63  57  82 E5        29.93F
HILTON HEAD IS CLOUDY    64  61  88 VRB3      29.93F
WALTERBORO     MOSUNNY   55  54  94 E7        29.96F
ALLENDALE      PTSUNNY   61  57  88 CALM      29.93S

...SOUTHERN MIDLANDS AND PEE DEE...

CITY           SKY/WX    TMP DP  RH WIND       PRES   REMARKS
GEORGETOWN     CLOUDY    55  55 100 CALM      30.00S
KINGSTREE      FAIR      54  52  94 CALM      29.98S
ORANGEBURG     CLOUDY    56  55  97 E5        29.96F
BARNWELL       FAIR      59  57  94 E6        29.94F
AIKEN          CLOUDY    59  55  88 E5        29.98F
MANNING        FAIR      52  46  82 MISG      29.97F
COLUMBIA       CLOUDY    59  54  83 E5        29.96F
SUMTER         CLOUDY    53  51  93 NE5       29.96S
FLORENCE       PTCLDY    52  51  97 E3        29.99F
MYRTLE BEACH   NOT AVBL
N MYRTLE BEACH MOCLDY    60  56  86 E6        30.00F

$$

GAZ063-065-086>088-099>101-113>116-118-119-134>141-150-221000-
...SOUTHEAST GEORGIA...

CITY           SKY/WX    TMP DP  RH WIND       PRES   REMARKS
SAVANNAH ARPT  CLOUDY    63  60  90 E9        29.92F
HUNTER AAF     PTCLDY    61  61 100 E6        29.89F
FORT STEWART   CLOUDY    62  60  94 CALM      29.88F
STATESBORO     CLOUDY    63  63 100 E6        29.92S
SYLVANIA       LGT RAIN N/A N/A N/A E13       29.93F
CLAXTON        FAIR     N/A N/A N/A NE3       29.91F FOG

...CSRA...CENTRAL AND FAR SOUTHEAST GEORGIA...

CITY           SKY/WX    TMP DP  RH WIND       PRES   REMARKS
THOMSON        CLOUDY    63  63 100 SE6       29.97F
AUGUSTA-BUSH   CLOUDY    62  60  93 NE3       29.93F
AUGUSTA-DANIEL LGT RAIN  61  57  87 E5        29.94F
SWAINSBORO     CLOUDY    63  61  94 E7        29.91F
VIDALIA        CLOUDY    63  63 100 E5        29.89F
EASTMAN        CLOUDY    64  64 100 E5        29.89F
HAZLEHURST     PTSUNNY   65  65 100 SE5       29.86F
ALMA           MOCLDY    66  61  84 SE7       29.86F
WAYCROSS       CLOUDY    68  66  93 SE9       29.86F
JESUP          FAIR      63  59  88 CALM      29.89F
BAXLEY         FAIR      64  64 100 E3        29.87F
BRUNSWICK      CLOUDY    68  63  83 SE6       29.89F
SAINT SIMONS   CLOUDY    67  61  81 SE8       29.88F

$$

SCZ027-028-034-036>038-045-046-048>050-GAZ119-141-221000-
...LAKE AND SUPPLEMENTAL COASTAL OBSERVATIONS...

STATION/POSITION TIME  TEMP    WIND        PRES    WAVE   SWELL
                       AIR SEA DIR/SP/G            HT/PER HT/PER/DIR
                 (UTC) (F)     (DEG/KT/KT) (MB)    (FT/S) (FT/S/D)
WINYAH BAY       NOT AVBL
LAKE MURRAY      0820   59      CALM  /  2 1014.2
ACE BASIN NERRS  0745   60      40/  2     1014.0
FORT PULASKI     0836   65 61  120/  9/ 12 1013.3F
SAPELO ISLAND    0800   65     140/  6     1013.0

$$

ANZ835-935-AMZ111-154-330-350-352-354-370-450-454-472-221000-
...C-MAN AND BUOY OBSERVATIONS...

STATION/POSITION TIME  TEMP    WIND        PRES    WAVE   SWELL
                       AIR SEA DIR/SP/G            HT/PER HT/PER/DIR
                 (UTC) (F)     (DEG/KT/KT) (MB)    (FT/S) (FT/S/D)
BUOY 41004       0750   69 69  120/ 17/ 19 1014.2    4/ 5   2/ 70/ 8
BUOY 41008       0750   65 63  140/  6/  6 1012.5    4/ 6   3/110/ 6
FOLLY BEACH CMAN 0800   61      50/  7/  8 1015.3F
CAPERS NEARSHORE NOT AVBL
FRIPP NEARSHORE  0808   64 60  110/ 12/ 14 1013.5F


STATION/POSITION TIME  TEMP    WIND        PRES    WAVE   SWELL
                       AIR SEA DIR/SP/G            HT/PER HT/PER/DIR
                 (UTC) (F)     (DEG/KT/KT) (MB)    (FT/S) (FT/S/D)
5E ST. MARYS GA  0830      64                N/A     4/ 6
FRYING PAN BUOY  0850   69 69  140/  8/ 10 1016.1F   4/ 8   3/ 70/ 8
BUOY 41025       0850   63 74  140/  6/ 10 1018.3F   4/ 8   3/ 50/ 8
CAPE LOOKOUT NC  0800   62      80/  7/  7 1017.4F
BUOY 41002       0850   63 71  110/ 10/ 16 1017.1R   5/ 8   5/ 40/ 8
BUOY 41010       NOT AVBL
ST AUGUSTINE FL  0900   67 68  130/  6/  6 1011.7F


$$




USA.gov is the U.S. government's official web portal to all federal, state and local government web resources and services.